CAPE
2303 2421 2456 2300 1768 564 0 0 0 0 0 0 0 0 0 5 0 0 15 2 22 10 2 8 78 220 443 228 319 290 338 202 223 18 23 63 78 64 166 64 3 40
2507 2532 2349 1912 907 0 0 0 0 0 0 0 0 0 0 0 0 2 0 2 75 103 10 6 17 68 96 229 178 236 228 294 346 322 111 58 130 19 82 47 112 255
2570 2406 2030 1270 0 0 0 0 0 0 0 0 0 0 0 0 0 0 0 0 2 17 30 10 2 16 48 60 74 177 280 126 165 48 206 167 58 58 118 46 208 254
2503 2250 1648 772 0 0 0 0 0 0 0 0 0 0 0 0 0 0 0 276 9 0 4 2 6 0 2 6 12 40 65 92 90 20 26 108 182 134 133 223 208 212
2417 2044 1278 552 0 0 0 0 0 0 0 0 0 0 3 0 1 0 0 2 21 7 0 1 0 0 0 0 0 13 22 66 43 10 20 47 76 192 252 240 251 252
2334 1763 1040 140 0 0 0 0 0 0 0 0 0 0 0 0 0 0 0 0 0 8 6 0 0 0 0 0 0 1 14 50 57 11 34 86 153 77 156 231 244 263
2304 1584 875 44 0 0 0 0 0 0 0 0 0 0 0 0 0 0 0 0 0 12 13 6 0 0 0 0 0 2 0 1 2 1 29 80 102 128 137 151 228 262
2260 1510 725 0 0 0 0 0 0 0 0 0 0 0 0 0 0 0 0 0 0 0 0 0 0 0 0 0 0 0 0 0 1 0 1 30 23 137 136 142 121 196
2248 1526 518 0 0 0 0 0 0 0 0 0 0 0 0 0 0 0 0 0 0 0 0 0 0 0 0 0 0 0 0 0 21 24 27 59 46 122 156 189 59 27
2212 1511 323 0 0 0 0 0 0 0 0 0 0 0 0 0 0 0 0 0 0 0 0 0 0 0 0 0 0 0 0 0 0 6 31 57 83 97 60 186 201 14
2156 1393 276 0 0 0 0 0 0 0 0 0 0 0 0 0 0 0 0 0 0 0 0 0 0 0 0 0 0 0 0 2 10 12 3 15 37 70 117 220 42 30
2066 1370 280 2 0 0 0 0 0 0 0 0 0 0 0 0 0 0 0 0 0 0 0 0 0 0 0 0 0 1 8 11 30 39 29 21 22 14 26 50 67 69
2084 1463 444 81 0 0 0 510 290 0 0 0 2 0 0 0 0 0 0 0 0 0 0 0 0 0 0 0 0 0 8 34 44 34 43 42 32 33 18 3 275 254
1734 1878 289 5 72 307 510 691 605 0 2 2 12 5 0 0 0 0 0 0 0 0 0 0 0 0 0 0 0 1 12 28 55 84 80 56 60 37 10 274 316 290
1468 603 191 242 286 337 518 718 697 448 129 16 21 1 7 0 0 0 0 0 0 0 0 0 0 0 0 0 0 0 0 30 54 89 115 121 82 35 10 86 272 272
822 202 254 334 324 34 466 720 771 572 209 12 0 0 0 0 0 0 0 0 0 0 0 0 0 0 0 0 0 1 0 1 19 43 54 54 102 114 60 41 181 202
896 284 419 214 38 7 471 670 741 657 444 191 122 0 0 0 0 0 0 0 0 0 0 0 0 0 0 0 0 0 4 2 8 30 53 61 73 99 169 218 136 126
1271 771 536 262 138 388 533 635 696 690 530 400 212 0 0 0 0 0 0 0 0 0 0 0 0 0 0 0 0 0 7 75 30 29 44 56 70 88 123 178 183 155
1239 916 370 285 443 502 598 621 725 785 609 462 219 0 0 0 0 0 0 0 0 0 0 0 0 0 0 0 0 0 0 16 62 56 44 64 52 68 108 154 205 215
1048 903 610 328 429 630 636 695 760 788 635 598 499 0 0 0 0 173 390 0 0 0 0 0 0 0 0 0 0 0 2 4 12 20 54 82 107 130 165 216 217 206
1353 929 872 633 228 503 650 738 809 777 714 673 478 0 0 1 50 373 348 0 0 49 0 1 0 0 0 0 0 0 0 0 0 12 10 28 88 136 173 227 196 180
1524 1088 924 654 283 377 646 703 743 796 845 752 243 2 67 337 438 439 349 6 1 86 30 12 33 0 0 0 0 0 0 0 0 0 1 16 25 46 68 72 98 116
1643 1237 896 527 260 309 532 724 768 706 682 498 4 5 232 412 488 504 475 188 11 12 6 19 69 28 0 74 262 293 212 57 0 0 0 3 28 52 70 62 64 72
1516 1195 1023 435 84 259 480 605 379 98 120 76 257 168 354 454 487 558 608 513 215 58 38 42 58 122 160 0 314 408 411 367 156 0 0 0 93 116 127 122 85 133
1541 1314 1030 516 151 285 364 194 62 106 108 31 424 563 564 536 583 714 803 701 699 656 725 824 778 561 382 309 264 447 487 541 547 366 24 132 175 204 65 0 0 66
1510 1098 844 404 243 400 120 7 19 36 50 266 503 482 482 563 654 810 958 872 941 975 824 854 848 677 391 502 474 524 570 602 603 592 469 292 149 124 0 8 0 0
Wind_Speed
26 25 25 24 25 26 nan nan nan nan nan nan nan nan nan nan nan nan nan nan nan nan nan nan nan 26 25 26 27 27 28 28 28 nan nan nan nan nan 33 nan nan nan
26 25 24 24 24 nan nan nan nan nan nan nan nan nan nan nan nan nan nan nan nan 26 nan nan nan nan nan 26 27 28 28 29 28 31 33 nan 33 nan nan nan 32 32
26 25 25 26 nan nan nan nan nan nan nan nan nan nan nan nan nan nan nan nan nan nan nan nan nan nan nan nan nan 28 29 30 30 nan 34 33 nan nan 34 nan 34 34
26 27 26 26 nan nan nan nan nan nan nan nan nan nan nan nan nan nan nan 27 nan nan nan nan nan nan nan nan nan nan nan nan nan nan nan 33 34 35 33 34 34 35
29 27 27 28 nan nan nan nan nan nan nan nan nan nan nan nan nan nan nan nan nan nan nan nan nan nan nan nan nan nan nan nan nan nan nan nan nan 36 35 36 36 35
29 29 30 31 nan nan nan nan nan nan nan nan nan nan nan nan nan nan nan nan nan nan nan nan nan nan nan nan nan nan nan nan nan nan nan nan 36 nan 37 38 37 37
31 30 32 nan nan nan nan nan nan nan nan nan nan nan nan nan nan nan nan nan nan nan nan nan nan nan nan nan nan nan nan nan nan nan nan nan 39 38 40 40 39 38
36 34 34 nan nan nan nan nan nan nan nan nan nan nan nan nan nan nan nan nan nan nan nan nan nan nan nan nan nan nan nan nan nan nan nan nan nan 38 39 40 40 39
38 37 36 nan nan nan nan nan nan nan nan nan nan nan nan nan nan nan nan nan nan nan nan nan nan nan nan nan nan nan nan nan nan nan nan nan nan 37 38 41 nan nan
38 38 39 nan nan nan nan nan nan nan nan nan nan nan nan nan nan nan nan nan nan nan nan nan nan nan nan nan nan nan nan nan nan nan nan nan nan nan nan 41 40 nan
40 39 39 nan nan nan nan nan nan nan nan nan nan nan nan nan nan nan nan nan nan nan nan nan nan nan nan nan nan nan nan nan nan nan nan nan nan nan 37 39 nan nan
41 41 39 nan nan nan nan nan nan nan nan nan nan nan nan nan nan nan nan nan nan nan nan nan nan nan nan nan nan nan nan nan nan nan nan nan nan nan nan nan nan nan
45 44 42 nan nan nan nan 37 37 nan nan nan nan nan nan nan nan nan nan nan nan nan nan nan nan nan nan nan nan nan nan nan nan nan nan nan nan nan nan nan 39 36
50 54 43 nan nan 36 36 35 35 nan nan nan nan nan nan nan nan nan nan nan nan nan nan nan nan nan nan nan nan nan nan nan nan nan nan nan nan nan nan 38 36 35
61 50 40 34 35 36 35 34 32 31 31 nan nan nan nan nan nan nan nan nan nan nan nan nan nan nan nan nan nan nan nan nan nan nan 41 41 nan nan nan nan 34 33
57 49 38 35 37 nan 39 37 34 32 32 nan nan nan nan nan nan nan nan nan nan nan nan nan nan nan nan nan nan nan nan nan nan nan nan nan 45 42 nan nan 35 33
57 51 39 38 nan nan 42 41 36 34 33 30 27 nan nan nan nan nan nan nan nan nan nan nan nan nan nan nan nan nan nan nan nan nan nan nan nan nan 45 42 38 33
55 47 41 41 40 40 41 41 37 36 33 28 28 nan nan nan nan nan nan nan nan nan nan nan nan nan nan nan nan nan nan nan nan nan nan nan nan nan 47 44 36 32
55 45 46 40 36 38 39 36 35 34 30 28 28 nan nan nan nan nan nan nan nan nan nan nan nan nan nan nan nan nan nan nan nan nan nan nan nan nan 49 45 38 33
53 46 42 40 43 44 42 37 38 38 37 36 34 nan nan nan nan 35 36 nan nan nan nan nan nan nan nan nan nan nan nan nan nan nan nan nan 50 49 49 45 41 39
53 48 45 44 47 48 49 47 44 42 41 38 32 nan nan nan nan 37 37 nan nan nan nan nan nan nan nan nan nan nan nan nan nan nan nan nan nan 49 49 47 45 42
53 52 51 51 49 50 51 49 45 36 27 26 28 nan nan 34 36 39 39 nan nan nan nan nan nan nan nan nan nan nan nan nan nan nan nan nan nan nan nan nan nan 47
55 54 53 53 51 47 44 41 37 32 28 31 nan nan 33 35 37 40 41 39 nan nan nan nan nan nan nan nan 43 47 49 nan nan nan nan nan nan nan nan nan nan nan
51 51 51 50 nan 41 41 36 34 nan 34 nan 36 34 32 34 38 40 41 41 39 nan nan nan nan 32 40 nan 46 49 51 51 52 nan nan nan nan 47 53 52 nan 43
53 51 49 48 44 44 44 38 nan 32 32 nan 30 29 30 34 36 37 39 40 40 38 35 33 31 32 39 46 48 50 51 51 52 50 nan 44 45 48 nan nan nan nan
53 51 47 45 43 43 41 nan nan nan nan 26 25 27 28 30 33 36 37 37 38 36 32 32 32 35 40 44 46 47 49 50 50 47 44 44 48 52 nan nan nan nan
Wind_Direction
310 308 309 306 306 307 nan nan nan nan nan nan nan nan nan nan nan nan nan nan nan nan nan nan nan 321 322 324 325 322 321 321 318 nan nan nan nan nan 326 nan nan nan
310 309 305 302 303 nan nan nan nan nan nan nan nan nan nan nan nan nan nan nan nan 319 nan nan nan nan nan 324 324 323 321 318 319 314 315 nan 321 nan nan nan 326 322
306 304 304 305 nan nan nan nan nan nan nan nan nan nan nan nan nan nan nan nan nan nan nan nan nan nan nan nan nan 322 321 320 321 nan 316 321 nan nan 325 nan 323 324
307 308 306 303 nan nan nan nan nan nan nan nan nan nan nan nan nan nan nan 308 nan nan nan nan nan nan nan nan nan nan nan nan nan nan nan 317 320 321 323 322 322 320
309 308 304 301 nan nan nan nan nan nan nan nan nan nan nan nan nan nan nan nan nan nan nan nan nan nan nan nan nan nan nan nan nan nan nan nan nan 318 321 321 322 322
305 304 302 300 nan nan nan nan nan nan nan nan nan nan nan nan nan nan nan nan nan nan nan nan nan nan nan nan nan nan nan nan nan nan nan nan 320 nan 318 319 320 320
301 298 299 nan nan nan nan nan nan nan nan nan nan nan nan nan nan nan nan nan nan nan nan nan nan nan nan nan nan nan nan nan nan nan nan nan 316 317 317 317 317 317
304 304 302 nan nan nan nan nan nan nan nan nan nan nan nan nan nan nan nan nan nan nan nan nan nan nan nan nan nan nan nan nan nan nan nan nan nan 318 318 317 316 316
308 306 301 nan nan nan nan nan nan nan nan nan nan nan nan nan nan nan nan nan nan nan nan nan nan nan nan nan nan nan nan nan nan nan nan nan nan 324 324 321 nan nan
311 305 304 nan nan nan nan nan nan nan nan nan nan nan nan nan nan nan nan nan nan nan nan nan nan nan nan nan nan nan nan nan nan nan nan nan nan nan nan 327 325 nan
311 307 306 nan nan nan nan nan nan nan nan nan nan nan nan nan nan nan nan nan nan nan nan nan nan nan nan nan nan nan nan nan nan nan nan nan nan nan 331 334 nan nan
312 307 304 nan nan nan nan nan nan nan nan nan nan nan nan nan nan nan nan nan nan nan nan nan nan nan nan nan nan nan nan nan nan nan nan nan nan nan nan nan nan nan
310 298 286 nan nan nan nan 287 294 nan nan nan nan nan nan nan nan nan nan nan nan nan nan nan nan nan nan nan nan nan nan nan nan nan nan nan nan nan nan nan 323 322
287 270 262 nan nan 280 282 285 293 nan nan nan nan nan nan nan nan nan nan nan nan nan nan nan nan nan nan nan nan nan nan nan nan nan nan nan nan nan nan 322 320 318
275 276 280 276 279 285 284 287 295 299 300 nan nan nan nan nan nan nan nan nan nan nan nan nan nan nan nan nan nan nan nan nan nan nan 328 328 nan nan nan nan 323 316
287 293 297 290 288 nan 284 288 294 294 294 nan nan nan nan nan nan nan nan nan nan nan nan nan nan nan nan nan nan nan nan nan nan nan nan nan 329 329 nan nan 329 317
298 301 305 292 nan nan 286 290 293 292 294 296 292 nan nan nan nan nan nan nan nan nan nan nan nan nan nan nan nan nan nan nan nan nan nan nan nan nan 332 334 330 319
305 304 298 284 283 288 290 292 293 293 295 297 294 nan nan nan nan nan nan nan nan nan nan nan nan nan nan nan nan nan nan nan nan nan nan nan nan nan 330 331 330 319
310 306 295 294 293 294 293 289 289 289 292 291 298 nan nan nan nan nan nan nan nan nan nan nan nan nan nan nan nan nan nan nan nan nan nan nan nan nan 330 331 329 320
315 307 306 308 298 294 296 297 290 291 289 286 288 nan nan nan nan 300 299 nan nan nan nan nan nan nan nan nan nan nan nan nan nan nan nan nan 329 328 328 330 328 322
318 321 321 313 305 304 299 292 292 293 289 284 289 nan nan nan nan 301 300 nan nan nan nan nan nan nan nan nan nan nan nan nan nan nan nan nan nan 327 328 328 325 321
321 321 322 317 311 302 295 290 290 294 291 289 299 nan nan 302 301 300 303 nan nan nan nan nan nan nan nan nan nan nan nan nan nan nan nan nan nan nan nan nan nan 318
319 321 322 317 309 303 297 294 295 293 285 292 nan nan 305 305 305 303 301 303 nan nan nan nan nan nan nan nan 327 327 322 nan nan nan nan nan nan nan nan nan nan nan
318 317 316 311 nan 309 301 293 289 nan 285 nan 306 305 303 305 303 302 304 303 303 nan nan nan nan 319 324 nan 325 324 320 318 317 nan nan nan nan 324 315 316 nan 308
312 314 316 317 320 316 306 296 nan 292 288 nan 298 300 304 303 303 304 304 302 303 304 308 314 313 317 320 321 322 320 317 315 317 318 nan 321 322 314 nan nan nan nan
314 317 318 318 320 315 301 nan nan nan nan 288 296 303 309 308 307 306 306 302 300 300 301 306 309 313 316 316 316 316 316 317 317 315 317 322 316 309 nan nan nan nan